LGX43B LIMF-LIEE

Flight info

Callsign LGX43B
Flight time 1h 3m
Altitude 35000
Route TOP L50 NEDED DCT LAGEN DCT UNITA DCT OLETI DCT TORTU DCT OKROK DCT AJO DCT CORSI DCT UPDUT DCT MINKA DCT BOLOT DCT RAMEN M732 KOVAS
Aircraft A319/M-SDE2FGHIJ1RWXY/HB1

Departure

Time 2026-05-05 18:28
Airport Turin Airport (LIMF)

Arrival

Time 2026-05-05 19:31
Airport Cagliari Elmas Airport (LIEE)
Time Latitude Longitude Altitude Speed Heading
2026-05-05 18:10 45.18797 7.64546 947 ft 0 kts 223°
2026-05-05 18:24 45.18794 7.64543 947 ft 3 kts 200°
2026-05-05 18:24 45.18789 7.64567 946 ft 5 kts 86°
2026-05-05 18:24 45.18756 7.64627 943 ft 11 kts 171°
2026-05-05 18:25 45.18670 7.64639 941 ft 10 kts 156°
2026-05-05 18:25 45.18667 7.64641 941 ft 0 kts 153°
2026-05-05 18:26 45.18663 7.64644 941 ft 3 kts 153°
2026-05-05 18:27 45.18624 7.64711 938 ft 14 kts 94°
2026-05-05 18:27 45.18677 7.64867 936 ft 18 kts 17°
2026-05-05 18:27 45.18765 7.64882 938 ft 2 kts
2026-05-05 18:27 45.18944 7.64895 943 ft 62 kts
2026-05-05 18:28 45.20683 7.65013 1217 ft 163 kts
2026-05-05 18:28 45.21744 7.65438 1840 ft 162 kts 42°
2026-05-05 18:28 45.22290 7.66790 2487 ft 164 kts 75°
2026-05-05 18:29 45.22492 7.68390 3085 ft 172 kts 85°
2026-05-05 18:29 45.22507 7.70206 3551 ft 190 kts 95°
2026-05-05 18:29 45.22257 7.72052 4018 ft 206 kts 108°
2026-05-05 18:29 45.21619 7.73907 4694 ft 213 kts 124°
2026-05-05 18:30 45.20610 7.75403 5457 ft 214 kts 143°
2026-05-05 18:30 45.19290 7.76360 6250 ft 217 kts 162°
2026-05-05 18:30 45.17791 7.76768 6994 ft 224 kts 171°
2026-05-05 18:30 45.16299 7.77442 7710 ft 233 kts 152°
2026-05-05 18:31 45.14871 7.78760 8239 ft 252 kts 146°
2026-05-05 18:31 45.13405 7.80270 8754 ft 271 kts 146°
2026-05-05 18:31 45.11830 7.81869 9449 ft 281 kts 146°
2026-05-05 18:31 45.10275 7.83414 10287 ft 285 kts 147°
2026-05-05 18:32 45.08623 7.85027 10888 ft 298 kts 148°
2026-05-05 18:32 45.06868 7.86714 11316 ft 317 kts 148°
2026-05-05 18:32 45.04870 7.88618 11743 ft 336 kts 148°
2026-05-05 18:32 45.02770 7.90611 12120 ft 355 kts 149°
2026-05-05 18:33 45.00577 7.92686 12518 ft 372 kts 149°
2026-05-05 18:33 44.98402 7.94746 13176 ft 378 kts 149°
2026-05-05 18:33 44.96131 7.96896 13930 ft 382 kts 149°
2026-05-05 18:33 44.93919 7.98985 14628 ft 385 kts 149°
2026-05-05 18:34 44.91680 8.01095 15329 ft 388 kts 150°
2026-05-05 18:34 44.89438 8.03204 16012 ft 391 kts 150°
2026-05-05 18:34 44.87160 8.05345 16674 ft 394 kts 150°
2026-05-05 18:34 44.84716 8.07639 17348 ft 397 kts 150°
2026-05-05 18:35 44.82212 8.09986 18023 ft 400 kts 150°
2026-05-05 18:35 44.79831 8.12226 18636 ft 402 kts 151°
2026-05-05 18:35 44.77485 8.14434 19205 ft 405 kts 151°
2026-05-05 18:35 44.75139 8.16636 19744 ft 407 kts 152°
2026-05-05 18:36 44.72772 8.18854 20257 ft 411 kts 152°
2026-05-05 18:36 44.70208 8.21246 20786 ft 414 kts 152°
2026-05-05 18:36 44.67641 8.23637 21321 ft 417 kts 152°
2026-05-05 18:36 44.65237 8.25875 21825 ft 419 kts 152°
2026-05-05 18:37 44.62827 8.28117 22253 ft 422 kts 152°
2026-05-05 18:37 44.60332 8.30433 22684 ft 426 kts 153°
2026-05-05 18:37 44.57883 8.32704 23118 ft 428 kts 153°
2026-05-05 18:37 44.55384 8.35019 23553 ft 431 kts 153°
2026-05-05 18:38 44.52896 8.37322 23966 ft 433 kts 153°
2026-05-05 18:38 44.50208 8.39809 24388 ft 436 kts 153°
2026-05-05 18:38 44.47391 8.42410 24818 ft 439 kts 153°
2026-05-05 18:38 44.44597 8.44987 25230 ft 442 kts 153°
2026-05-05 18:39 44.41948 8.47423 25618 ft 446 kts 153°
2026-05-05 18:39 44.39316 8.50025 25992 ft 452 kts 150°
2026-05-05 18:39 44.36565 8.53093 26393 ft 457 kts 147°
2026-05-05 18:39 44.33776 8.56379 26771 ft 461 kts 147°
2026-05-05 18:40 44.31276 8.59330 27147 ft 462 kts 147°
2026-05-05 18:40 44.28714 8.62356 27628 ft 461 kts 147°
2026-05-05 18:40 44.26185 8.65340 28102 ft 460 kts 147°
2026-05-05 18:40 44.23727 8.68234 28536 ft 460 kts 148°
2026-05-05 18:41 44.21281 8.71111 28925 ft 461 kts 148°
2026-05-05 18:41 44.18842 8.73972 29321 ft 461 kts 148°
2026-05-05 18:41 44.16390 8.76843 29635 ft 463 kts 148°
2026-05-05 18:41 44.13907 8.79742 29762 ft 470 kts 148°
2026-05-05 18:42 44.11403 8.82664 29894 ft 475 kts 148°
2026-05-05 18:42 44.08855 8.85643 30111 ft 478 kts 148°
2026-05-05 18:42 44.06282 8.88649 30447 ft 478 kts 148°
2026-05-05 18:42 44.03753 8.91600 30818 ft 477 kts 148°
2026-05-05 18:43 44.01145 8.94478 31181 ft 470 kts 153°
2026-05-05 18:43 43.98406 8.96844 31519 ft 461 kts 160°
2026-05-05 18:43 43.95488 8.98716 31855 ft 452 kts 167°
2026-05-05 18:43 43.92505 9.00048 32177 ft 444 kts 174°
2026-05-05 18:44 43.89470 9.00871 32491 ft 436 kts 180°
2026-05-05 18:44 43.86491 9.01193 32797 ft 429 kts 186°
2026-05-05 18:44 43.83514 9.01057 33099 ft 423 kts 191°
2026-05-05 18:44 43.80603 9.00748 33396 ft 423 kts 191°
2026-05-05 18:45 43.77653 9.00400 33689 ft 422 kts 192°
2026-05-05 18:45 43.74752 9.00046 33970 ft 422 kts 192°
2026-05-05 18:45 43.71836 8.99692 34246 ft 422 kts 192°
2026-05-05 18:45 43.68913 8.99339 34543 ft 421 kts 192°
2026-05-05 18:46 43.66016 8.98990 34828 ft 420 kts 192°
2026-05-05 18:46 43.63115 8.98642 34927 ft 420 kts 192°
2026-05-05 18:46 43.57321 8.97951 34939 ft 418 kts 192°
2026-05-05 18:47 43.51538 8.97265 34942 ft 418 kts 192°
2026-05-05 18:47 43.45727 8.96580 34942 ft 418 kts 192°
2026-05-05 18:48 43.39955 8.95904 34943 ft 418 kts 192°
2026-05-05 18:48 43.34148 8.95221 34942 ft 418 kts 192°
2026-05-05 18:49 43.28364 8.94546 34932 ft 418 kts 192°
2026-05-05 18:49 43.22595 8.93877 34924 ft 417 kts 192°
2026-05-05 18:50 43.16833 8.93213 34919 ft 416 kts 192°
2026-05-05 18:50 43.11094 8.92549 34917 ft 416 kts 192°
2026-05-05 18:51 43.05324 8.91884 34917 ft 416 kts 192°
2026-05-05 18:51 42.99567 8.91223 34917 ft 416 kts 192°
2026-05-05 18:52 42.93808 8.90564 34917 ft 416 kts 192°
2026-05-05 18:52 42.88098 8.89914 34917 ft 416 kts 192°
2026-05-05 18:53 42.82336 8.89258 34917 ft 416 kts 192°
2026-05-05 18:53 42.76588 8.88595 34917 ft 415 kts 192°
2026-05-05 18:54 42.70845 8.87931 34917 ft 416 kts 192°
2026-05-05 18:54 42.65078 8.87270 34917 ft 417 kts 192°
2026-05-05 18:55 42.59291 8.86612 34917 ft 417 kts 192°
2026-05-05 18:55 42.53476 8.85952 34917 ft 417 kts 192°
2026-05-05 18:56 42.47536 8.85279 34917 ft 417 kts 192°
2026-05-05 18:56 42.41759 8.84629 34918 ft 417 kts 192°
2026-05-05 18:57 42.36004 8.83986 34917 ft 417 kts 192°
2026-05-05 18:57 42.30235 8.83338 34917 ft 417 kts 192°
2026-05-05 18:58 42.24472 8.82690 34917 ft 417 kts 192°
2026-05-05 18:58 42.18687 8.82037 34924 ft 421 kts 192°
2026-05-05 18:59 42.12872 8.81388 34934 ft 421 kts 192°
2026-05-05 18:59 42.07033 8.80738 34939 ft 421 kts 192°
2026-05-05 19:00 42.02201 8.80200 34941 ft 421 kts 192°
2026-05-05 19:00 41.96125 8.79525 34942 ft 421 kts 192°
2026-05-05 19:01 41.90319 8.78882 34942 ft 421 kts 192°
2026-05-05 19:01 41.84495 8.78239 34942 ft 421 kts 192°
2026-05-05 19:02 41.78643 8.77674 34942 ft 423 kts 189°
2026-05-05 19:02 41.72637 8.77792 34942 ft 430 kts 184°
2026-05-05 19:03 41.66593 8.78314 34942 ft 430 kts 184°
2026-05-05 19:03 41.60368 8.78851 34942 ft 430 kts 184°
2026-05-05 19:04 41.54132 8.79390 34942 ft 430 kts 184°
2026-05-05 19:04 41.47941 8.79926 34942 ft 430 kts 184°
2026-05-05 19:05 41.41816 8.80454 34942 ft 430 kts 184°
2026-05-05 19:05 41.35859 8.81223 34942 ft 435 kts 179°
2026-05-05 19:06 41.29856 8.82628 34942 ft 437 kts 177°
2026-05-05 19:06 41.23896 8.83954 34940 ft 434 kts 180°
2026-05-05 19:07 41.17935 8.84540 34941 ft 428 kts 185°
2026-05-05 19:07 41.12027 8.84680 34942 ft 428 kts 185°
2026-05-05 19:08 41.05975 8.84857 34942 ft 428 kts 185°
2026-05-05 19:08 40.99833 8.85029 34872 ft 428 kts 185°
2026-05-05 19:09 40.96799 8.85113 34612 ft 426 kts 185°
2026-05-05 19:09 40.93864 8.85195 34363 ft 423 kts 186°
2026-05-05 19:09 40.90941 8.85277 34113 ft 421 kts 186°
2026-05-05 19:09 40.88064 8.85356 33768 ft 419 kts 186°
2026-05-05 19:10 40.85141 8.85434 33274 ft 419 kts 186°
2026-05-05 19:10 40.82221 8.85524 32672 ft 421 kts 185°
2026-05-05 19:10 40.79324 8.85735 32027 ft 422 kts 184°
2026-05-05 19:10 40.76405 8.85974 31360 ft 422 kts 184°
2026-05-05 19:11 40.73465 8.86211 30651 ft 423 kts 184°
2026-05-05 19:11 40.70509 8.86449 29808 ft 427 kts 184°
2026-05-05 19:11 40.67570 8.86687 28989 ft 429 kts 184°
2026-05-05 19:11 40.64594 8.86929 28178 ft 430 kts 184°
2026-05-05 19:12 40.61603 8.87176 27353 ft 431 kts 183°
2026-05-05 19:12 40.58492 8.87434 26478 ft 432 kts 183°
2026-05-05 19:12 40.55251 8.87703 25716 ft 430 kts 183°
2026-05-05 19:12 40.51983 8.87977 25167 ft 428 kts 182°
2026-05-05 19:13 40.49034 8.88226 24647 ft 425 kts 182°
2026-05-05 19:13 40.46116 8.88471 24116 ft 421 kts 182°
2026-05-05 19:13 40.43208 8.88715 23577 ft 417 kts 182°
2026-05-05 19:13 40.40320 8.88955 23026 ft 413 kts 182°
2026-05-05 19:14 40.37457 8.89190 22447 ft 409 kts 182°
2026-05-05 19:14 40.34668 8.89418 21868 ft 405 kts 182°
2026-05-05 19:14 40.31876 8.89643 21274 ft 402 kts 181°
2026-05-05 19:14 40.28927 8.89881 20642 ft 399 kts 181°
2026-05-05 19:15 40.25942 8.90123 19994 ft 396 kts 181°
2026-05-05 19:15 40.22975 8.90365 19336 ft 394 kts 180°
2026-05-05 19:15 40.20017 8.90603 18613 ft 395 kts 180°
2026-05-05 19:15 40.17216 8.90831 17907 ft 396 kts 179°
2026-05-05 19:16 40.14475 8.91061 17289 ft 395 kts 179°
2026-05-05 19:16 40.11741 8.91290 16718 ft 392 kts 179°
2026-05-05 19:16 40.09046 8.91515 16172 ft 390 kts 179°
2026-05-05 19:16 40.06357 8.91738 15637 ft 387 kts 179°
2026-05-05 19:17 40.03674 8.91960 15127 ft 383 kts 179°
2026-05-05 19:17 40.01026 8.92178 14609 ft 380 kts 179°
2026-05-05 19:17 39.98428 8.92391 14092 ft 377 kts 179°
2026-05-05 19:17 39.95790 8.92608 13563 ft 374 kts 179°
2026-05-05 19:18 39.93218 8.92820 13054 ft 371 kts 179°
2026-05-05 19:18 39.90617 8.93035 12525 ft 368 kts 179°
2026-05-05 19:18 39.88018 8.93248 11991 ft 365 kts 179°
2026-05-05 19:18 39.85429 8.93459 11458 ft 361 kts 179°
2026-05-05 19:19 39.82871 8.93684 10926 ft 359 kts 177°
2026-05-05 19:19 39.80259 8.94442 10579 ft 353 kts 164°
2026-05-05 19:19 39.77985 8.95827 10432 ft 327 kts 153°
2026-05-05 19:19 39.76146 8.97326 10308 ft 298 kts 151°
2026-05-05 19:20 39.74352 8.98857 10192 ft 271 kts 151°
2026-05-05 19:20 39.72764 9.00204 10109 ft 251 kts 152°
2026-05-05 19:20 39.71278 9.01448 10036 ft 242 kts 152°
2026-05-05 19:20 39.69804 9.02673 9973 ft 233 kts 152°
2026-05-05 19:21 39.68352 9.03876 9961 ft 227 kts 152°
2026-05-05 19:21 39.66931 9.05049 10006 ft 227 kts 153°
2026-05-05 19:21 39.65456 9.06247 10066 ft 230 kts 156°
2026-05-05 19:21 39.63880 9.06978 9959 ft 224 kts 174°
2026-05-05 19:22 39.62202 9.07134 9669 ft 216 kts 183°
2026-05-05 19:22 39.60635 9.07149 9227 ft 217 kts 184°
2026-05-05 19:22 39.59013 9.07157 8805 ft 216 kts 184°
2026-05-05 19:22 39.57449 9.07176 8409 ft 214 kts 183°
2026-05-05 19:23 39.55970 9.07204 8033 ft 213 kts 183°
2026-05-05 19:23 39.54470 9.07236 7650 ft 211 kts 183°
2026-05-05 19:23 39.52930 9.06873 7217 ft 206 kts 204°
2026-05-05 19:23 39.51585 9.05797 6795 ft 203 kts 216°
2026-05-05 19:24 39.50352 9.04623 6447 ft 199 kts 217°
2026-05-05 19:24 39.49165 9.03480 6111 ft 195 kts 217°
2026-05-05 19:24 39.47963 9.02333 5773 ft 191 kts 216°
2026-05-05 19:24 39.46800 9.01229 5448 ft 187 kts 216°
2026-05-05 19:25 39.45698 9.00189 5144 ft 183 kts 216°
2026-05-05 19:25 39.44593 8.99149 4818 ft 178 kts 215°
2026-05-05 19:25 39.43521 8.98153 4418 ft 170 kts 215°
2026-05-05 19:25 39.42463 8.97167 4003 ft 164 kts 215°
2026-05-05 19:26 39.41512 8.96277 3693 ft 151 kts 214°
2026-05-05 19:26 39.40635 8.95455 3414 ft 137 kts 214°
2026-05-05 19:26 39.39842 8.94711 3186 ft 131 kts 214°
2026-05-05 19:26 39.39119 8.94034 2985 ft 130 kts 213°
2026-05-05 19:27 39.38329 8.93294 2764 ft 129 kts 213°
2026-05-05 19:27 39.37509 8.92641 2609 ft 127 kts 197°
2026-05-05 19:27 39.36541 8.92557 2523 ft 129 kts 168°
2026-05-05 19:27 39.35708 8.93081 2418 ft 129 kts 145°
2026-05-05 19:28 39.35025 8.93840 2330 ft 128 kts 140°
2026-05-05 19:28 39.34364 8.94620 2236 ft 128 kts 140°
2026-05-05 19:28 39.33714 8.95386 2011 ft 128 kts 140°
2026-05-05 19:28 39.33048 8.96167 1823 ft 127 kts 139°
2026-05-05 19:29 39.32359 8.96972 1647 ft 127 kts 139°
2026-05-05 19:29 39.31650 8.97798 1457 ft 126 kts 139°
2026-05-05 19:29 39.30946 8.98618 1272 ft 126 kts 138°
2026-05-05 19:29 39.30258 8.99422 1072 ft 126 kts 136°
2026-05-05 19:30 39.29605 9.00235 803 ft 125 kts 138°
2026-05-05 19:30 39.28911 9.01027 632 ft 124 kts 136°
2026-05-05 19:30 39.28226 9.01839 515 ft 124 kts 136°
2026-05-05 19:30 39.27543 9.02660 388 ft 124 kts 136°
2026-05-05 19:31 39.26895 9.03404 203 ft 123 kts 137°
2026-05-05 19:31 39.26249 9.04154 87 ft 123 kts 136°
2026-05-05 19:31 39.25654 9.04847 20 ft 88 kts 142°
2026-05-05 19:31 39.25410 9.05133 19 ft 18 kts 137°
2026-05-05 19:32 39.25310 9.05288 19 ft 13 kts 62°
2026-05-05 19:32 39.25328 9.05321 19 ft 7 kts 56°
2026-05-05 19:32 39.25360 9.05384 19 ft 9 kts 57°
2026-05-05 19:32 39.25374 9.05411 20 ft 0 kts 51°
2026-05-05 19:33 39.25381 9.05420 19 ft 12 kts 41°
2026-05-05 19:33 39.25400 9.05443 19 ft 6 kts 60°
2026-05-05 19:33 39.25402 9.05515 19 ft 9 kts 96°
2026-05-05 19:33 39.25382 9.05605 19 ft 11 kts 118°
2026-05-05 19:34 39.25349 9.05706 19 ft 12 kts 110°
2026-05-05 19:34 39.25322 9.05787 19 ft 5 kts 113°
2026-05-05 19:34 39.25318 9.05798 19 ft 0 kts 113°